START_TIME,STEP,MOV.,P1,t_acc.,E44,t_acc.,A3,t_acc.,P10,t_acc.
1979-07-15 21:00:23.440 ,0,0,1.,1.2,220.,1.2,0.,1.2,0.,1.2
1979-07-15 21:00:24.640 ,0,0,2.,1.2,220.,1.2,0.,1.2,1.,1.2
1979-07-15 21:00:25.840 ,0,0,4.,1.2,264.,1.2,0.,1.2,1.,1.2
1979-07-15 21:00:27.040 ,0,0,4.,1.2,236.,1.2,0.,1.2,0.,1.2
1979-07-15 21:00:28.240 ,0,0,0.,1.2,212.,1.2,0.,1.2,0.,1.2
1979-07-15 21:00:29.440 ,0,0,3.,1.2,232.,1.2,0.,1.2,0.,1.2
1979-07-15 21:00:30.640 ,0,0,3.,1.2,236.,1.2,0.,1.2,0.,1.2
1979-07-15 21:00:31.840 ,0,0,5.,1.2,240.,1.2,1.,1.2,0.,1.2
1979-07-15 21:00:33.040 ,0,0,1.,1.2,224.,1.2,0.,1.2,0.,1.2
1979-07-15 21:00:34.240 ,0,0,1.,1.2,232.,1.2,0.,1.2,0.,1.2
1979-07-15 21:00:35.440 ,0,0,2.,1.2,244.,1.2,0.,1.2,0.,1.2
1979-07-15 21:00:36.640 ,0,0,3.,1.2,240.,1.2,1.,1.2,0.,1.2
1979-07-15 21:00:37.840 ,0,0,2.,1.2,248.,1.2,2.,1.2,0.,1.2
1979-07-15 21:00:39.040 ,0,0,4.,1.2,208.,1.2,0.,1.2,0.,1.2
1979-07-15 21:00:40.240 ,0,0,1.,1.2,240.,1.2,0.,1.2,0.,1.2
1979-07-15 21:00:41.440 ,0,0,4.,1.2,264.,1.2,0.,1.2,0.,1.2
1979-07-15 21:00:42.640 ,0,0,1.,1.2,232.,1.2,0.,1.2,0.,1.2
1979-07-15 21:00:43.840 ,0,0,1.,1.2,220.,1.2,0.,1.2,0.,1.2
1979-07-15 21:00:45.040 ,0,0,4.,1.2,252.,1.2,0.,1.2,0.,1.2
1979-07-15 21:00:46.240 ,0,0,0.,1.2,240.,1.2,0.,1.2,0.,1.2
1979-07-15 21:00:47.440 ,0,0,0.,1.2,220.,1.2,0.,1.2,0.,1.2
1979-07-15 21:00:48.640 ,0,0,0.,1.2,224.,1.2,0.,1.2,0.,1.2
1979-07-15 21:00:49.840 ,0,0,1.,1.2,228.,1.2,0.,1.2,0.,1.2
1979-07-15 21:00:51.040 ,0,0,4.,1.2,232.,1.2,0.,1.2,0.,1.2
1979-07-15 21:00:52.240 ,0,0,2.,1.2,228.,1.2,0.,1.2,0.,1.2
1979-07-15 21:00:53.440 ,0,0,2.,1.2,248.,1.2,0.,1.2,0.,1.2
1979-07-15 21:00:54.640 ,0,0,1.,1.2,252.,1.2,1.,1.2,1.,1.2
1979-07-15 21:00:55.840 ,0,0,0.,1.2,236.,1.2,0.,1.2,2.,1.2
1979-07-15 21:00:57.040 ,0,0,1.,1.2,220.,1.2,0.,1.2,0.,1.2
1979-07-15 21:00:58.240 ,0,0,5.,1.2,244.,1.2,0.,1.2,0.,1.2
1979-07-15 21:00:59.440 ,0,0,0.,1.2,244.,1.2,0.,1.2,0.,1.2
1979-07-15 21:01:00.640 ,0,0,2.,1.2,256.,1.2,0.,1.2,0.,1.2
1979-07-15 21:01:01.840 ,0,0,2.,1.2,256.,1.2,0.,1.2,0.,1.2
1979-07-15 21:01:03.040 ,0,0,3.,1.2,236.,1.2,0.,1.2,0.,1.2
1979-07-15 21:01:04.240 ,0,0,3.,1.2,248.,1.2,0.,1.2,1.,1.2
1979-07-15 21:01:05.440 ,0,0,2.,1.2,264.,1.2,0.,1.2,1.,1.2
1979-07-15 21:01:06.640 ,0,0,2.,1.2,216.,1.2,0.,1.2,0.,1.2
1979-07-15 21:01:07.840 ,0,0,1.,1.2,232.,1.2,0.,1.2,0.,1.2
1979-07-15 21:01:09.040 ,0,0,2.,1.2,264.,1.2,0.,1.2,0.,1.2
1979-07-15 21:01:10.240 ,0,0,3.,1.2,244.,1.2,0.,1.2,0.,1.2
1979-07-15 21:01:11.440 ,0,0,4.,1.2,244.,1.2,0.,1.2,0.,1.2
1979-07-15 21:01:12.640 ,0,0,3.,1.2,244.,1.2,0.,1.2,0.,1.2
1979-07-15 21:01:13.840 ,0,0,4.,1.2,200.,1.2,0.,1.2,0.,1.2
1979-07-15 21:01:15.040 ,0,0,3.,1.2,232.,1.2,0.,1.2,0.,1.2
1979-07-15 21:01:16.240 ,0,0,1.,1.2,244.,1.2,0.,1.2,1.,1.2
1979-07-15 21:01:17.440 ,0,0,6.,1.2,256.,1.2,0.,1.2,0.,1.2
1979-07-15 21:01:18.640 ,0,0,3.,1.2,228.,1.2,0.,1.2,0.,1.2
1979-07-15 21:01:19.840 ,0,0,3.,1.2,236.,1.2,0.,1.2,1.,1.2
1979-07-15 21:01:21.040 ,0,0,0.,1.2,244.,1.2,0.,1.2,0.,1.2
1979-07-15 21:01:22.240 ,0,0,1.,1.2,228.,1.2,0.,1.2,1.,1.2
1979-07-15 21:01:23.440 ,0,0,2.,1.2,236.,1.2,0.,1.2,0.,1.2
1979-07-15 21:01:24.640 ,0,0,0.,1.2,252.,1.2,0.,1.2,0.,1.2
1979-07-15 21:01:25.840 ,0,0,1.,1.2,256.,1.2,0.,1.2,0.,1.2
1979-07-15 21:01:27.040 ,0,0,2.,1.2,248.,1.2,0.,1.2,0.,1.2
1979-07-15 21:01:28.240 ,0,0,1.,1.2,212.,1.2,0.,1.2,0.,1.2
1979-07-15 21:01:29.440 ,0,0,1.,1.2,224.,1.2,0.,1.2,0.,1.2
1979-07-15 21:01:30.640 ,0,0,1.,1.2,220.,1.2,0.,1.2,1.,1.2
1979-07-15 21:01:31.840 ,0,0,4.,1.2,252.,1.2,0.,1.2,1.,1.2
1979-07-15 21:01:33.040 ,0,0,4.,1.2,208.,1.2,0.,1.2,0.,1.2
1979-07-15 21:01:34.240 ,0,0,4.,1.2,264.,1.2,0.,1.2,0.,1.2
1979-07-15 21:01:35.440 ,1,0,2.,1.2,232.,1.2,0.,1.2,0.,1.2
1979-07-15 21:01:36.640 ,1,0,3.,1.2,256.,1.2,0.,1.2,0.,1.2
1979-07-15 21:01:37.840 ,1,0,3.,1.2,236.,1.2,0.,1.2,0.,1.2
1979-07-15 21:01:39.040 ,1,0,2.,1.2,256.,1.2,0.,1.2,0.,1.2
1979-07-15 21:01:40.240 ,1,0,2.,1.2,224.,1.2,0.,1.2,0.,1.2
1979-07-15 21:01:41.440 ,1,0,2.,1.2,752.,1.2,0.,1.2,0.,1.2
1979-07-15 21:01:42.640 ,1,0,0.,1.2,224.,1.2,2.,1.2,0.,1.2
1979-07-15 21:01:43.840 ,1,0,2.,1.2,196.,1.2,0.,1.2,0.,1.2
1979-07-15 21:01:45.040 ,1,0,2.,1.2,208.,1.2,0.,1.2,0.,1.2
1979-07-15 21:01:46.240 ,1,0,5.,1.2,236.,1.2,0.,1.2,0.,1.2
1979-07-15 21:01:47.440 ,1,0,4.,1.2,196.,1.2,0.,1.2,0.,1.2
1979-07-15 21:01:48.640 ,1,0,2.,1.2,212.,1.2,0.,1.2,0.,1.2
1979-07-15 21:01:49.840 ,1,0,6.,1.2,192.,1.2,0.,1.2,1.,1.2
1979-07-15 21:01:51.040 ,1,0,2.,1.2,208.,1.2,0.,1.2,0.,1.2
1979-07-15 21:01:52.240 ,1,0,1.,1.2,172.,1.2,0.,1.2,1.,1.2
1979-07-15 21:01:53.440 ,1,0,3.,1.2,196.,1.2,0.,1.2,1.,1.2
1979-07-15 21:01:54.640 ,1,0,1.,1.2,220.,1.2,0.,1.2,0.,1.2
1979-07-15 21:01:55.840 ,1,0,3.,1.2,204.,1.2,0.,1.2,0.,1.2
1979-07-15 21:01:57.040 ,1,0,2.,1.2,204.,1.2,1.,1.2,0.,1.2
1979-07-15 21:01:58.240 ,1,0,1.,1.2,220.,1.2,2.,1.2,0.,1.2
1979-07-15 21:01:59.440 ,1,0,4.,1.2,188.,1.2,0.,1.2,0.,1.2
1979-07-15 21:02:00.640 ,1,0,5.,1.2,204.,1.2,0.,1.2,0.,1.2
1979-07-15 21:02:01.840 ,1,0,2.,1.2,220.,1.2,0.,1.2,0.,1.2
1979-07-15 21:02:03.040 ,1,0,4.,1.2,212.,1.2,0.,1.2,0.,1.2
1979-07-15 21:02:04.240 ,1,0,2.,1.2,196.,1.2,0.,1.2,0.,1.2
1979-07-15 21:02:05.440 ,1,0,3.,1.2,200.,1.2,1.,1.2,0.,1.2
1979-07-15 21:02:06.640 ,1,0,5.,1.2,220.,1.2,1.,1.2,0.,1.2
1979-07-15 21:02:07.840 ,1,0,1.,1.2,216.,1.2,0.,1.2,1.,1.2
1979-07-15 21:02:09.040 ,1,0,2.,1.2,212.,1.2,0.,1.2,1.,1.2
1979-07-15 21:02:10.240 ,1,0,0.,1.2,212.,1.2,0.,1.2,0.,1.2
1979-07-15 21:02:11.440 ,1,0,3.,1.2,200.,1.2,0.,1.2,0.,1.2
1979-07-15 21:02:12.640 ,1,0,1.,1.2,200.,1.2,1.,1.2,0.,1.2
1979-07-15 21:02:13.840 ,1,0,2.,1.2,204.,1.2,0.,1.2,0.,1.2
1979-07-15 21:02:15.040 ,1,0,5.,1.2,196.,1.2,0.,1.2,0.,1.2
1979-07-15 21:02:16.240 ,1,0,1.,1.2,196.,1.2,0.,1.2,0.,1.2
1979-07-15 21:02:17.440 ,1,0,2.,1.2,204.,1.2,0.,1.2,2.,1.2
1979-07-15 21:02:18.640 ,1,0,1.,1.2,188.,1.2,0.,1.2,1.,1.2
1979-07-15 21:02:19.840 ,1,0,4.,1.2,176.,1.2,0.,1.2,0.,1.2
1979-07-15 21:02:21.040 ,1,0,1.,1.2,212.,1.2,0.,1.2,0.,1.2
1979-07-15 21:02:22.240 ,1,0,0.,1.2,180.,1.2,0.,1.2,0.,1.2
1979-07-15 21:02:23.440 ,2,0,2.,1.2,200.,1.2,0.,1.2,0.,1.2
1979-07-15 21:02:24.640 ,2,0,0.,1.2,208.,1.2,0.,1.2,0.,1.2
1979-07-15 21:02:25.840 ,2,0,1.,1.2,196.,1.2,0.,1.2,0.,1.2
1979-07-15 21:02:27.040 ,2,0,3.,1.2,196.,1.2,0.,1.2,0.,1.2
1979-07-15 21:02:28.240 ,2,0,4.,1.2,208.,1.2,0.,1.2,0.,1.2
1979-07-15 21:02:29.440 ,2,0,3.,1.2,592.,1.2,0.,1.2,0.,1.2
1979-07-15 21:02:30.640 ,2,0,2.,1.2,160.,1.2,0.,1.2,0.,1.2
1979-07-15 21:02:31.840 ,2,0,2.,1.2,156.,1.2,0.,1.2,1.,1.2
1979-07-15 21:02:33.040 ,2,0,2.,1.2,168.,1.2,1.,1.2,0.,1.2
1979-07-15 21:02:34.240 ,2,0,1.,1.2,172.,1.2,0.,1.2,0.,1.2
1979-07-15 21:02:35.440 ,2,0,2.,1.2,172.,1.2,0.,1.2,0.,1.2
1979-07-15 21:02:36.640 ,2,0,1.,1.2,196.,1.2,0.,1.2,0.,1.2
1979-07-15 21:02:37.840 ,2,0,2.,1.2,196.,1.2,0.,1.2,2.,1.2
1979-07-15 21:02:39.040 ,2,0,1.,1.2,180.,1.2,0.,1.2,0.,1.2
1979-07-15 21:02:40.240 ,2,0,1.,1.2,164.,1.2,1.,1.2,1.,1.2
1979-07-15 21:02:41.440 ,2,0,4.,1.2,156.,1.2,1.,1.2,0.,1.2
1979-07-15 21:02:42.640 ,2,0,3.,1.2,152.,1.2,0.,1.2,0.,1.2
1979-07-15 21:02:43.840 ,2,0,2.,1.2,168.,1.2,0.,1.2,1.,1.2
1979-07-15 21:02:45.040 ,2,0,3.,1.2,164.,1.2,0.,1.2,0.,1.2
1979-07-15 21:02:46.240 ,2,0,2.,1.2,180.,1.2,0.,1.2,0.,1.2
1979-07-15 21:02:47.440 ,2,0,4.,1.2,172.,1.2,0.,1.2,0.,1.2
1979-07-15 21:02:48.640 ,2,0,0.,1.2,172.,1.2,0.,1.2,0.,1.2
1979-07-15 21:02:49.840 ,2,0,6.,1.2,148.,1.2,0.,1.2,1.,1.2
1979-07-15 21:02:51.040 ,2,0,2.,1.2,168.,1.2,1.,1.2,0.,1.2
1979-07-15 21:02:52.240 ,2,0,3.,1.2,152.,1.2,0.,1.2,0.,1.2
1979-07-15 21:02:53.440 ,2,0,1.,1.2,168.,1.2,0.,1.2,0.,1.2
1979-07-15 21:02:54.640 ,2,0,0.,1.2,144.,1.2,1.,1.2,0.,1.2
1979-07-15 21:02:55.840 ,2,0,3.,1.2,168.,1.2,0.,1.2,0.,1.2
1979-07-15 21:02:57.040 ,2,0,2.,1.2,188.,1.2,0.,1.2,0.,1.2
1979-07-15 21:02:58.240 ,2,0,1.,1.2,164.,1.2,0.,1.2,0.,1.2
1979-07-15 21:02:59.440 ,2,0,0.,1.2,176.,1.2,0.,1.2,0.,1.2
1979-07-15 21:03:00.640 ,2,0,4.,1.2,168.,1.2,0.,1.2,0.,1.2
1979-07-15 21:03:01.840 ,2,0,3.,1.2,156.,1.2,0.,1.2,0.,1.2
1979-07-15 21:03:03.040 ,2,0,3.,1.2,172.,1.2,0.,1.2,1.,1.2
1979-07-15 21:03:04.240 ,2,0,5.,1.2,164.,1.2,0.,1.2,0.,1.2
1979-07-15 21:03:05.440 ,2,0,6.,1.2,160.,1.2,0.,1.2,0.,1.2
1979-07-15 21:03:06.640 ,2,0,1.,1.2,164.,1.2,1.,1.2,0.,1.2
1979-07-15 21:03:07.840 ,2,0,2.,1.2,196.,1.2,1.,1.2,0.,1.2
1979-07-15 21:03:09.040 ,2,0,5.,1.2,184.,1.2,0.,1.2,0.,1.2
1979-07-15 21:03:10.240 ,2,0,2.,1.2,176.,1.2,1.,1.2,0.,1.2
1979-07-15 21:03:11.440 ,3,0,1.,1.2,188.,1.2,0.,1.2,0.,1.2
1979-07-15 21:03:12.640 ,3,0,3.,1.2,168.,1.2,0.,1.2,1.,1.2
1979-07-15 21:03:13.840 ,3,0,2.,1.2,172.,1.2,0.,1.2,0.,1.2
1979-07-15 21:03:15.040 ,3,0,4.,1.2,176.,1.2,0.,1.2,0.,1.2
1979-07-15 21:03:16.240 ,3,0,3.,1.2,156.,1.2,1.,1.2,1.,1.2
1979-07-15 21:03:17.440 ,3,0,2.,1.2,608.,1.2,0.,1.2,0.,1.2
1979-07-15 21:03:18.640 ,3,0,3.,1.2,92.,1.2,0.,1.2,0.,1.2
1979-07-15 21:03:19.840 ,3,0,2.,1.2,116.,1.2,0.,1.2,0.,1.2
1979-07-15 21:03:21.040 ,3,0,1.,1.2,116.,1.2,0.,1.2,0.,1.2
1979-07-15 21:03:22.240 ,3,0,4.,1.2,100.,1.2,0.,1.2,0.,1.2
1979-07-15 21:03:23.440 ,3,0,3.,1.2,86.,1.2,0.,1.2,1.,1.2
1979-07-15 21:03:24.640 ,3,0,3.,1.2,80.,1.2,0.,1.2,0.,1.2
1979-07-15 21:03:25.840 ,3,0,2.,1.2,92.,1.2,0.,1.2,0.,1.2
1979-07-15 21:03:27.040 ,3,0,2.,1.2,96.,1.2,0.,1.2,0.,1.2
1979-07-15 21:03:28.240 ,3,0,5.,1.2,90.,1.2,0.,1.2,0.,1.2
1979-07-15 21:03:29.440 ,3,0,2.,1.2,114.,1.2,0.,1.2,0.,1.2
1979-07-15 21:03:30.640 ,3,0,1.,1.2,100.,1.2,0.,1.2,1.,1.2
1979-07-15 21:03:31.840 ,3,0,2.,1.2,92.,1.2,0.,1.2,0.,1.2
1979-07-15 21:03:33.040 ,3,0,0.,1.2,102.,1.2,0.,1.2,0.,1.2
1979-07-15 21:03:34.240 ,3,0,2.,1.2,98.,1.2,1.,1.2,0.,1.2
1979-07-15 21:03:35.440 ,3,0,3.,1.2,92.,1.2,1.,1.2,0.,1.2
1979-07-15 21:03:36.640 ,3,0,3.,1.2,104.,1.2,0.,1.2,0.,1.2
1979-07-15 21:03:37.840 ,3,0,3.,1.2,100.,1.2,0.,1.2,1.,1.2
1979-07-15 21:03:39.040 ,3,0,2.,1.2,96.,1.2,0.,1.2,1.,1.2
1979-07-15 21:03:40.240 ,3,0,3.,1.2,100.,1.2,0.,1.2,1.,1.2
1979-07-15 21:03:41.440 ,3,0,1.,1.2,80.,1.2,0.,1.2,1.,1.2
1979-07-15 21:03:42.640 ,3,0,4.,1.2,96.,1.2,1.,1.2,0.,1.2
1979-07-15 21:03:43.840 ,3,0,1.,1.2,82.,1.2,0.,1.2,1.,1.2
1979-07-15 21:03:45.040 ,3,0,2.,1.2,96.,1.2,0.,1.2,0.,1.2
1979-07-15 21:03:46.240 ,3,0,2.,1.2,100.,1.2,0.,1.2,1.,1.2
1979-07-15 21:03:47.440 ,3,0,1.,1.2,98.,1.2,0.,1.2,0.,1.2
1979-07-15 21:03:48.640 ,3,0,1.,1.2,90.,1.2,0.,1.2,0.,1.2
1979-07-15 21:03:49.840 ,3,0,0.,1.2,92.,1.2,0.,1.2,0.,1.2
1979-07-15 21:03:51.040 ,3,0,3.,1.2,104.,1.2,0.,1.2,0.,1.2
1979-07-15 21:03:52.240 ,3,0,1.,1.2,88.,1.2,0.,1.2,1.,1.2
1979-07-15 21:03:53.440 ,3,0,3.,1.2,88.,1.2,0.,1.2,0.,1.2
1979-07-15 21:03:54.640 ,3,0,1.,1.2,102.,1.2,0.,1.2,0.,1.2
1979-07-15 21:03:55.840 ,3,0,2.,1.2,90.,1.2,1.,1.2,1.,1.2
1979-07-15 21:03:57.040 ,3,0,2.,1.2,78.,1.2,0.,1.2,1.,1.2
1979-07-15 21:03:58.240 ,3,0,1.,1.2,84.,1.2,0.,1.2,0.,1.2
1979-07-15 21:03:59.440 ,4,0,0.,1.2,80.,1.2,0.,1.2,0.,1.2
1979-07-15 21:04:00.640 ,4,0,2.,1.2,80.,1.2,0.,1.2,0.,1.2
1979-07-15 21:04:01.840 ,4,0,2.,1.2,90.,1.2,0.,1.2,0.,1.2
1979-07-15 21:04:03.040 ,4,0,1.,1.2,110.,1.2,0.,1.2,0.,1.2
1979-07-15 21:04:04.240 ,4,0,3.,1.2,84.,1.2,0.,1.2,0.,1.2
1979-07-15 21:04:05.440 ,4,0,2.,1.2,640.,1.2,0.,1.2,0.,1.2
1979-07-15 21:04:06.640 ,4,0,0.,1.2,228.,1.2,0.,1.2,0.,1.2
1979-07-15 21:04:07.840 ,4,0,3.,1.2,204.,1.2,0.,1.2,0.,1.2
1979-07-15 21:04:09.040 ,4,0,3.,1.2,212.,1.2,0.,1.2,0.,1.2
1979-07-15 21:04:10.240 ,4,0,2.,1.2,244.,1.2,0.,1.2,0.,1.2
1979-07-15 21:04:11.440 ,4,0,5.,1.2,228.,1.2,0.,1.2,0.,1.2
1979-07-15 21:04:12.640 ,4,0,3.,1.2,212.,1.2,0.,1.2,0.,1.2
1979-07-15 21:04:13.840 ,4,0,3.,1.2,200.,1.2,0.,1.2,0.,1.2
1979-07-15 21:04:15.040 ,4,0,2.,1.2,180.,1.2,0.,1.2,1.,1.2
1979-07-15 21:04:16.240 ,4,0,2.,1.2,208.,1.2,0.,1.2,0.,1.2
1979-07-15 21:04:17.440 ,4,0,3.,1.2,204.,1.2,0.,1.2,0.,1.2
1979-07-15 21:04:18.640 ,4,0,2.,1.2,208.,1.2,0.,1.2,1.,1.2
1979-07-15 21:04:19.840 ,4,0,4.,1.2,212.,1.2,0.,1.2,0.,1.2
1979-07-15 21:04:21.040 ,4,0,5.,1.2,196.,1.2,0.,1.2,1.,1.2
1979-07-15 21:04:22.240 ,4,0,2.,1.2,236.,1.2,0.,1.2,0.,1.2
1979-07-15 21:04:23.440 ,4,0,2.,1.2,196.,1.2,0.,1.2,0.,1.2
1979-07-15 21:04:24.640 ,4,0,4.,1.2,204.,1.2,0.,1.2,0.,1.2
1979-07-15 21:04:25.840 ,4,0,4.,1.2,236.,1.2,0.,1.2,0.,1.2
1979-07-15 21:04:27.040 ,4,0,1.,1.2,204.,1.2,0.,1.2,0.,1.2
1979-07-15 21:04:28.240 ,4,0,2.,1.2,216.,1.2,0.,1.2,0.,1.2
1979-07-15 21:04:29.440 ,4,0,3.,1.2,192.,1.2,0.,1.2,0.,1.2
1979-07-15 21:04:30.640 ,4,0,3.,1.2,248.,1.2,0.,1.2,0.,1.2
1979-07-15 21:04:31.840 ,4,0,2.,1.2,224.,1.2,0.,1.2,0.,1.2
1979-07-15 21:04:33.040 ,4,0,3.,1.2,204.,1.2,0.,1.2,0.,1.2
1979-07-15 21:04:34.240 ,4,0,2.,1.2,224.,1.2,1.,1.2,0.,1.2
1979-07-15 21:04:35.440 ,4,0,1.,1.2,220.,1.2,1.,1.2,0.,1.2
1979-07-15 21:04:36.640 ,4,0,1.,1.2,192.,1.2,0.,1.2,0.,1.2
1979-07-15 21:04:37.840 ,4,0,4.,1.2,208.,1.2,0.,1.2,0.,1.2
1979-07-15 21:04:39.040 ,4,0,1.,1.2,224.,1.2,0.,1.2,0.,1.2
1979-07-15 21:04:40.240 ,4,0,0.,1.2,196.,1.2,0.,1.2,0.,1.2
1979-07-15 21:04:41.440 ,4,0,2.,1.2,204.,1.2,0.,1.2,0.,1.2
1979-07-15 21:04:42.640 ,4,0,1.,1.2,216.,1.2,0.,1.2,0.,1.2
1979-07-15 21:04:43.840 ,4,0,3.,1.2,224.,1.2,0.,1.2,0.,1.2
1979-07-15 21:04:45.040 ,4,0,2.,1.2,224.,1.2,0.,1.2,0.,1.2
1979-07-15 21:04:46.240 ,4,0,5.,1.2,224.,1.2,0.,1.2,0.,1.2
1979-07-15 21:04:47.440 ,5,0,2.,1.2,196.,1.2,0.,1.2,0.,1.2
1979-07-15 21:04:48.640 ,5,0,4.,1.2,232.,1.2,0.,1.2,1.,1.2
1979-07-15 21:04:49.840 ,5,0,3.,1.2,224.,1.2,0.,1.2,1.,1.2
1979-07-15 21:04:51.040 ,5,0,3.,1.2,228.,1.2,0.,1.2,1.,1.2
1979-07-15 21:04:52.240 ,5,0,2.,1.2,208.,1.2,0.,1.2,0.,1.2
1979-07-15 21:04:53.440 ,5,0,3.,1.2,608.,1.2,1.,1.2,0.,1.2
1979-07-15 21:04:54.640 ,5,0,2.,1.2,208.,1.2,0.,1.2,0.,1.2
1979-07-15 21:04:55.840 ,5,0,4.,1.2,208.,1.2,0.,1.2,0.,1.2
1979-07-15 21:04:57.040 ,5,0,3.,1.2,208.,1.2,0.,1.2,1.,1.2
1979-07-15 21:04:58.240 ,5,0,0.,1.2,212.,1.2,0.,1.2,0.,1.2
1979-07-15 21:04:59.440 ,5,0,2.,1.2,204.,1.2,0.,1.2,0.,1.2
1979-07-15 21:05:00.640 ,5,0,1.,1.2,176.,1.2,0.,1.2,0.,1.2
1979-07-15 21:05:01.840 ,5,0,0.,1.2,212.,1.2,0.,1.2,1.,1.2
1979-07-15 21:05:03.040 ,5,0,2.,1.2,228.,1.2,1.,1.2,0.,1.2
1979-07-15 21:05:04.240 ,5,0,2.,1.2,232.,1.2,0.,1.2,0.,1.2
1979-07-15 21:05:05.440 ,5,0,3.,1.2,212.,1.2,0.,1.2,0.,1.2
1979-07-15 21:05:06.640 ,5,0,4.,1.2,200.,1.2,0.,1.2,0.,1.2
1979-07-15 21:05:07.840 ,5,0,0.,1.2,184.,1.2,1.,1.2,0.,1.2
1979-07-15 21:05:09.040 ,5,0,5.,1.2,192.,1.2,0.,1.2,0.,1.2
1979-07-15 21:05:10.240 ,5,0,4.,1.2,220.,1.2,1.,1.2,1.,1.2
1979-07-15 21:05:11.440 ,5,0,4.,1.2,216.,1.2,0.,1.2,0.,1.2
1979-07-15 21:05:12.640 ,5,0,3.,1.2,204.,1.2,0.,1.2,0.,1.2
1979-07-15 21:05:13.840 ,5,0,1.,1.2,220.,1.2,0.,1.2,0.,1.2
1979-07-15 21:05:15.040 ,5,0,1.,1.2,208.,1.2,0.,1.2,0.,1.2
1979-07-15 21:05:16.240 ,5,0,0.,1.2,232.,1.2,0.,1.2,0.,1.2
1979-07-15 21:05:17.440 ,5,0,2.,1.2,224.,1.2,0.,1.2,0.,1.2
1979-07-15 21:05:18.640 ,5,0,2.,1.2,220.,1.2,0.,1.2,0.,1.2
1979-07-15 21:05:19.840 ,5,0,1.,1.2,236.,1.2,0.,1.2,0.,1.2
1979-07-15 21:05:21.040 ,5,0,5.,1.2,244.,1.2,0.,1.2,1.,1.2
1979-07-15 21:05:22.240 ,5,0,0.,1.2,204.,1.2,0.,1.2,1.,1.2
1979-07-15 21:05:23.440 ,5,0,1.,1.2,212.,1.2,0.,1.2,0.,1.2
1979-07-15 21:05:24.640 ,5,0,3.,1.2,224.,1.2,0.,1.2,0.,1.2
1979-07-15 21:05:25.840 ,5,0,3.,1.2,248.,1.2,0.,1.2,1.,1.2
1979-07-15 21:05:27.040 ,5,0,1.,1.2,224.,1.2,0.,1.2,0.,1.2
1979-07-15 21:05:28.240 ,5,0,1.,1.2,208.,1.2,0.,1.2,1.,1.2
1979-07-15 21:05:29.440 ,5,0,2.,1.2,248.,1.2,0.,1.2,0.,1.2
1979-07-15 21:05:30.640 ,5,0,2.,1.2,232.,1.2,0.,1.2,0.,1.2
1979-07-15 21:05:31.840 ,5,0,1.,1.2,220.,1.2,0.,1.2,0.,1.2
1979-07-15 21:05:33.040 ,5,0,2.,1.2,200.,1.2,0.,1.2,0.,1.2
1979-07-15 21:05:34.240 ,5,0,4.,1.2,224.,1.2,0.,1.2,0.,1.2
1979-07-15 21:05:35.440 ,6,0,1.,1.2,196.,1.2,1.,1.2,0.,1.2
1979-07-15 21:05:36.640 ,6,0,0.,1.2,204.,1.2,1.,1.2,0.,1.2
1979-07-15 21:05:37.840 ,6,0,1.,1.2,216.,1.2,0.,1.2,1.,1.2
1979-07-15 21:05:39.040 ,6,0,0.,1.2,216.,1.2,0.,1.2,0.,1.2
1979-07-15 21:05:40.240 ,6,0,5.,1.2,232.,1.2,1.,1.2,0.,1.2
1979-07-15 21:05:41.440 ,6,0,2.,1.2,640.,1.2,0.,1.2,0.,1.2
1979-07-15 21:05:42.640 ,6,0,1.,1.2,200.,1.2,0.,1.2,0.,1.2
1979-07-15 21:05:43.840 ,6,0,3.,1.2,192.,1.2,1.,1.2,0.,1.2
1979-07-15 21:05:45.040 ,6,0,1.,1.2,216.,1.2,0.,1.2,0.,1.2
1979-07-15 21:05:46.240 ,6,0,0.,1.2,204.,1.2,1.,1.2,0.,1.2
1979-07-15 21:05:47.440 ,6,0,3.,1.2,188.,1.2,1.,1.2,0.,1.2
1979-07-15 21:05:48.640 ,6,0,1.,1.2,212.,1.2,0.,1.2,0.,1.2
1979-07-15 21:05:49.840 ,6,0,0.,1.2,212.,1.2,0.,1.2,0.,1.2
1979-07-15 21:05:51.040 ,6,0,1.,1.2,208.,1.2,0.,1.2,0.,1.2
1979-07-15 21:05:52.240 ,6,0,4.,1.2,200.,1.2,0.,1.2,0.,1.2
1979-07-15 21:05:53.440 ,6,0,0.,1.2,188.,1.2,0.,1.2,0.,1.2
1979-07-15 21:05:54.640 ,6,0,0.,1.2,220.,1.2,0.,1.2,0.,1.2
1979-07-15 21:05:55.840 ,6,0,1.,1.2,192.,1.2,1.,1.2,0.,1.2
1979-07-15 21:05:57.040 ,6,0,2.,1.2,216.,1.2,0.,1.2,0.,1.2
1979-07-15 21:05:58.240 ,6,0,1.,1.2,164.,1.2,0.,1.2,0.,1.2
1979-07-15 21:05:59.440 ,6,0,0.,1.2,196.,1.2,0.,1.2,0.,1.2
1979-07-15 21:06:00.640 ,6,0,5.,1.2,208.,1.2,0.,1.2,1.,1.2
1979-07-15 21:06:01.840 ,6,0,2.,1.2,196.,1.2,0.,1.2,0.,1.2
1979-07-15 21:06:03.040 ,6,0,3.,1.2,192.,1.2,1.,1.2,0.,1.2
1979-07-15 21:06:04.240 ,6,0,1.,1.2,208.,1.2,0.,1.2,0.,1.2
1979-07-15 21:06:05.440 ,6,0,1.,1.2,200.,1.2,2.,1.2,0.,1.2
1979-07-15 21:06:06.640 ,6,0,4.,1.2,204.,1.2,0.,1.2,1.,1.2
1979-07-15 21:06:07.840 ,6,0,3.,1.2,208.,1.2,0.,1.2,0.,1.2
1979-07-15 21:06:09.040 ,6,0,1.,1.2,208.,1.2,0.,1.2,0.,1.2
1979-07-15 21:06:10.240 ,6,0,2.,1.2,180.,1.2,0.,1.2,0.,1.2
1979-07-15 21:06:11.440 ,6,0,1.,1.2,184.,1.2,1.,1.2,0.,1.2
1979-07-15 21:06:12.640 ,6,0,1.,1.2,184.,1.2,0.,1.2,0.,1.2
1979-07-15 21:06:13.840 ,6,0,3.,1.2,172.,1.2,1.,1.2,0.,1.2
1979-07-15 21:06:15.040 ,6,0,1.,1.2,204.,1.2,0.,1.2,0.,1.2
1979-07-15 21:06:16.240 ,6,0,3.,1.2,168.,1.2,1.,1.2,0.,1.2
1979-07-15 21:06:17.440 ,6,0,2.,1.2,200.,1.2,0.,1.2,0.,1.2
1979-07-15 21:06:18.640 ,6,0,2.,1.2,160.,1.2,0.,1.2,0.,1.2
1979-07-15 21:06:19.840 ,6,0,1.,1.2,184.,1.2,0.,1.2,1.,1.2
1979-07-15 21:06:21.040 ,6,0,1.,1.2,192.,1.2,1.,1.2,0.,1.2
1979-07-15 21:06:22.240 ,6,0,1.,1.2,168.,1.2,0.,1.2,1.,1.2
1979-07-15 21:06:23.440 ,7,0,0.,1.2,196.,1.2,0.,1.2,0.,1.2
1979-07-15 21:06:24.640 ,7,0,1.,1.2,192.,1.2,0.,1.2,0.,1.2
1979-07-15 21:06:25.840 ,7,0,1.,1.2,176.,1.2,0.,1.2,0.,1.2
1979-07-15 21:06:27.040 ,7,0,0.,1.2,192.,1.2,1.,1.2,0.,1.2
1979-07-15 21:06:28.240 ,7,0,3.,1.2,196.,1.2,1.,1.2,0.,1.2
1979-07-15 21:06:29.440 ,7,0,0.,1.2,592.,1.2,3.,1.2,0.,1.2
1979-07-15 21:06:30.640 ,7,0,0.,1.2,208.,1.2,5.,1.2,0.,1.2
1979-07-15 21:06:31.840 ,7,0,0.,1.2,192.,1.2,5.,1.2,0.,1.2
1979-07-15 21:06:33.040 ,7,0,0.,1.2,212.,1.2,10.,1.2,0.,1.2
1979-07-15 21:06:34.240 ,7,0,0.,1.2,200.,1.2,5.,1.2,0.,1.2
1979-07-15 21:06:35.440 ,7,0,0.,1.2,204.,1.2,5.,1.2,1.,1.2
1979-07-15 21:06:36.640 ,7,0,0.,1.2,192.,1.2,2.,1.2,0.,1.2
1979-07-15 21:06:37.840 ,7,0,0.,1.2,184.,1.2,5.,1.2,0.,1.2
1979-07-15 21:06:39.040 ,7,0,0.,1.2,180.,1.2,7.,1.2,0.,1.2
1979-07-15 21:06:40.240 ,7,0,0.,1.2,188.,1.2,6.,1.2,0.,1.2
1979-07-15 21:06:41.440 ,7,0,0.,1.2,232.,1.2,4.,1.2,0.,1.2
1979-07-15 21:06:42.640 ,7,0,0.,1.2,248.,1.2,8.,1.2,0.,1.2
1979-07-15 21:06:43.840 ,7,0,0.,1.2,176.,1.2,6.,1.2,0.,1.2
1979-07-15 21:06:45.040 ,7,0,0.,1.2,204.,1.2,7.,1.2,0.,1.2
1979-07-15 21:06:46.240 ,7,0,0.,1.2,192.,1.2,6.,1.2,0.,1.2
1979-07-15 21:06:47.440 ,7,0,0.,1.2,208.,1.2,4.,1.2,0.,1.2
1979-07-15 21:06:48.640 ,7,0,0.,1.2,200.,1.2,7.,1.2,0.,1.2
1979-07-15 21:06:49.840 ,7,0,0.,1.2,204.,1.2,5.,1.2,0.,1.2
1979-07-15 21:06:51.040 ,7,0,0.,1.2,184.,1.2,2.,1.2,0.,1.2
1979-07-15 21:06:52.240 ,7,0,0.,1.2,224.,1.2,9.,1.2,0.,1.2
1979-07-15 21:06:53.440 ,7,0,0.,1.2,216.,1.2,8.,1.2,0.,1.2
1979-07-15 21:06:54.640 ,7,0,0.,1.2,216.,1.2,7.,1.2,0.,1.2
1979-07-15 21:06:55.840 ,7,0,0.,1.2,192.,1.2,9.,1.2,0.,1.2
1979-07-15 21:06:57.040 ,7,0,0.,1.2,228.,1.2,3.,1.2,0.,1.2
1979-07-15 21:06:58.240 ,7,0,0.,1.2,192.,1.2,4.,1.2,0.,1.2
1979-07-15 21:06:59.440 ,7,0,0.,1.2,188.,1.2,2.,1.2,0.,1.2
1979-07-15 21:07:00.640 ,7,0,0.,1.2,212.,1.2,8.,1.2,0.,1.2
1979-07-15 21:07:01.840 ,7,0,0.,1.2,216.,1.2,4.,1.2,0.,1.2
1979-07-15 21:07:03.040 ,7,0,0.,1.2,200.,1.2,7.,1.2,0.,1.2
1979-07-15 21:07:04.240 ,7,0,0.,1.2,240.,1.2,4.,1.2,1.,1.2
1979-07-15 21:07:05.440 ,7,0,0.,1.2,220.,1.2,8.,1.2,0.,1.2
1979-07-15 21:07:06.640 ,7,0,0.,1.2,212.,1.2,2.,1.2,0.,1.2
1979-07-15 21:07:07.840 ,7,0,0.,1.2,220.,1.2,4.,1.2,0.,1.2
1979-07-15 21:07:09.040 ,7,0,0.,1.2,216.,1.2,8.,1.2,0.,1.2
1979-07-15 21:07:10.240 ,7,0,0.,1.2,204.,1.2,5.,1.2,0.,1.2
1979-07-15 21:07:11.440 ,3,0,0.,1.2,624.,1.2,6.,1.2,0.,1.2
1979-07-15 21:07:12.640 ,3,0,3.,1.2,212.,1.2,0.,1.2,0.,1.2
1979-07-15 21:07:13.840 ,3,0,0.,1.2,200.,1.2,0.,1.2,0.,1.2
1979-07-15 21:07:15.040 ,3,0,0.,1.2,184.,1.2,1.,1.2,0.,1.2
1979-07-15 21:07:16.240 ,3,0,1.,1.2,168.,1.2,0.,1.2,0.,1.2
1979-07-15 21:07:17.440 ,3,0,2.,1.2,560.,1.2,0.,1.2,0.,1.2
1979-07-15 21:07:18.640 ,3,0,6.,1.2,192.,1.2,0.,1.2,0.,1.2
1979-07-15 21:07:19.840 ,3,0,4.,1.2,196.,1.2,0.,1.2,0.,1.2
1979-07-15 21:07:21.040 ,3,0,4.,1.2,188.,1.2,0.,1.2,0.,1.2
1979-07-15 21:07:22.240 ,3,0,4.,1.2,196.,1.2,0.,1.2,0.,1.2
1979-07-15 21:07:23.440 ,3,0,2.,1.2,496.,1.2,0.,1.2,0.,1.2
1979-07-15 21:07:24.640 ,3,0,3.,1.2,200.,1.2,0.,1.2,0.,1.2
1979-07-15 21:07:25.840 ,3,0,2.,1.2,232.,1.2,0.,1.2,0.,1.2
1979-07-15 21:07:27.040 ,3,0,1.,1.2,228.,1.2,0.,1.2,0.,1.2
1979-07-15 21:07:28.240 ,3,0,2.,1.2,224.,1.2,0.,1.2,0.,1.2
1979-07-15 21:07:29.440 ,3,0,1.,1.2,512.,1.2,1.,1.2,0.,1.2
1979-07-15 21:07:30.640 ,3,0,2.,1.2,82.,1.2,0.,1.2,1.,1.2
1979-07-15 21:07:31.840 ,3,0,1.,1.2,82.,1.2,0.,1.2,0.,1.2
1979-07-15 21:07:33.040 ,3,0,6.,1.2,68.,1.2,1.,1.2,0.,1.2
1979-07-15 21:07:34.240 ,3,0,2.,1.2,78.,1.2,0.,1.2,0.,1.2
1979-07-15 21:07:35.440 ,0,0,2.,1.2,480.,1.2,0.,1.2,0.,1.2
1979-07-15 21:07:36.640 ,0,0,1.,1.2,180.,1.2,0.,1.2,0.,1.2
1979-07-15 21:07:37.840 ,0,0,2.,1.2,192.,1.2,0.,1.2,0.,1.2
1979-07-15 21:07:39.040 ,0,0,0.,1.2,192.,1.2,0.,1.2,1.,1.2
1979-07-15 21:07:40.240 ,0,0,3.,1.2,152.,1.2,0.,1.2,1.,1.2
1979-07-15 21:07:41.440 ,0,0,3.,1.2,512.,1.2,1.,1.2,0.,1.2
1979-07-15 21:07:42.640 ,0,0,2.,1.2,196.,1.2,0.,1.2,0.,1.2
1979-07-15 21:07:43.840 ,0,0,1.,1.2,224.,1.2,0.,1.2,0.,1.2
1979-07-15 21:07:45.040 ,0,0,2.,1.2,192.,1.2,0.,1.2,0.,1.2
1979-07-15 21:07:46.240 ,0,0,4.,1.2,204.,1.2,0.,1.2,1.,1.2
1979-07-15 21:07:47.440 ,0,0,3.,1.2,672.,1.2,0.,1.2,0.,1.2
1979-07-15 21:07:48.640 ,0,0,3.,1.2,244.,1.2,0.,1.2,0.,1.2
1979-07-15 21:07:49.840 ,0,0,3.,1.2,264.,1.2,0.,1.2,0.,1.2
1979-07-15 21:07:51.040 ,0,0,1.,1.2,240.,1.2,0.,1.2,0.,1.2
1979-07-15 21:07:52.240 ,0,0,6.,1.2,252.,1.2,0.,1.2,0.,1.2
1979-07-15 21:07:53.440 ,0,0,4.,1.2,264.,1.2,0.,1.2,1.,1.2
1979-07-15 21:07:54.640 ,0,0,0.,1.2,272.,1.2,1.,1.2,0.,1.2
1979-07-15 21:07:55.840 ,0,0,2.,1.2,252.,1.2,1.,1.2,0.,1.2
1979-07-15 21:07:57.040 ,0,0,1.,1.2,280.,1.2,0.,1.2,0.,1.2
1979-07-15 21:07:58.240 ,0,0,2.,1.2,264.,1.2,0.,1.2,0.,1.2
1979-07-15 21:07:59.440 ,4,0,2.,1.2,576.,1.2,0.,1.2,0.,1.2
1979-07-15 21:08:00.640 ,4,0,4.,1.2,172.,1.2,0.,1.2,0.,1.2
1979-07-15 21:08:01.840 ,4,0,2.,1.2,220.,1.2,0.,1.2,0.,1.2
1979-07-15 21:08:03.040 ,4,0,3.,1.2,200.,1.2,0.,1.2,0.,1.2
1979-07-15 21:08:04.240 ,4,0,0.,1.2,192.,1.2,0.,1.2,0.,1.2
1979-07-15 21:08:05.440 ,4,0,0.,1.2,512.,1.2,0.,1.2,1.,1.2
1979-07-15 21:08:06.640 ,4,0,1.,1.2,164.,1.2,0.,1.2,0.,1.2
1979-07-15 21:08:07.840 ,4,0,2.,1.2,168.,1.2,1.,1.2,0.,1.2
1979-07-15 21:08:09.040 ,4,0,3.,1.2,192.,1.2,0.,1.2,0.,1.2
1979-07-15 21:08:10.240 ,4,0,2.,1.2,136.,1.2,0.,1.2,0.,1.2
1979-07-15 21:08:11.440 ,4,0,1.,1.2,504.,1.2,0.,1.2,0.,1.2
1979-07-15 21:08:12.640 ,4,0,2.,1.2,82.,1.2,0.,1.2,1.,1.2
1979-07-15 21:08:13.840 ,4,0,2.,1.2,78.,1.2,0.,1.2,1.,1.2
1979-07-15 21:08:15.040 ,4,0,2.,1.2,86.,1.2,0.,1.2,0.,1.2
1979-07-15 21:08:16.240 ,4,0,1.,1.2,92.,1.2,0.,1.2,1.,1.2
1979-07-15 21:08:17.440 ,4,0,1.,1.2,504.,1.2,0.,1.2,0.,1.2
1979-07-15 21:08:18.640 ,4,0,2.,1.2,240.,1.2,0.,1.2,1.,1.2
1979-07-15 21:08:19.840 ,4,0,2.,1.2,256.,1.2,0.,1.2,0.,1.2
1979-07-15 21:08:21.040 ,4,0,2.,1.2,256.,1.2,0.,1.2,0.,1.2